星链-34839(STARLINK-34839)

导读

STARLINK-34839是美国星链互联网卫星星座的一员,于2025年9月21日发射升空。星链计划旨在构建全球卫星互联网,为全球偏远地区提供高速网络服务,该卫星延续星链设计,依靠星间链路实现信号传输,入轨后将逐步参与组网,提升星座覆盖密度与服务能力,强化美国在低轨卫星通信领域的布局。

基本信息
目录编号:
65703
目录名称:
STARLINK-34839
国际标识:
2025-212AD
轨道中心:
EARTH
卫星名称:
星链-34839
卫星全名:
星链-34839(STARLINK-34839)
卫星状态:
在轨 (已飞行357 天)
发射日期:
2025-09-21 UTC
国别 :
美国 (US)
星等 :
--
该卫星已列入 空间交会检测服务 Space Conjunction Data Service (SCDS) ,当前飞行风险评估等级: 无高风险
轨道信息
数据来源 国际轨道数据
星历时间: 2026-09-12T15:00:24+0800
21小时前
查看轨道信息
半长轴: 6848.807km
偏心率: 0.0001394
轨道倾角: 53.159°
近地点辐角 89.101°
升交点赤经 197.472°
平近点角 271.015°
近地点: 469.715km
远地点: 471.625km
周期: 94.012分钟
每日圈数: 15.317235
详细信息
固有亮度:
5
最大亮度:
2.5
卫星平台:
Starlink V1.0
覆盖范围:
全球
运营商:
太空探索技术公司
运营商所在国:
美国
制造商(研发单位):
太空探索技术公司
制造商所在国:
美国
使用方式:
暂无
卫星简介
Starlink 计划是 SpaceX 推出的全球卫星互联网项目,通过发射低轨道卫星,为全球尤其是偏远地区提供高速、低延迟的互联网服务。自 2019 年起,Starlink 已部署数千颗卫星,旨在缩小全球数字鸿沟,推动互联网普及。该项目还为军事、航空等行业提供通信支持,带来广泛经济效益。
2D轨道图
3D轨道图
轨道高度分析图
轨道倾角分析图
轨道综合分析图
查看轨道综合分析图
交会数据列表
事件ID 空间交会对象 最接近时刻(TCA) 交会距离 交会风险概率(CRP) 交会风险指数(CRI) 操作
CDM_260915-010305-018206-570321
2026-09-15T
01:03:01+0000
0.931 km
远距离
2.226846E-5 中风险 0.62
CDM_260914-232905-018206-570321
2026-09-14T
23:29:03+0000
1.759 km
极远距离
2.710639E-6 低风险 0.44
CDM_260909-124906-570306-902821
2026-09-09T
12:49:46+0000
2.992 km
极远距离
1.200213E-6 低风险 0.37
CDM_260909-084405-632406-570321
2026-09-09T
08:44:22+0000
2.982 km
极远距离
9.025556E-7 极低风险 0.34
与全量物体交会距离演化趋势
与全量物体交会风险概率演化趋势